TimeEST,TemperatureF,Dew PointF,Humidity,Sea Level PressureIn,VisibilityMPH,Wind Direction,Wind SpeedMPH,Gust SpeedMPH,PrecipitationIn,Events,Conditions,WindDirDegrees,DateUTC
12:16 AM,14.9,12.2,89,30.35,10.0,East,5.8,-,N/A,,Clear,90,2013-02-22 05:16:00
12:36 AM,15.4,12.2,87,30.34,10.0,East,3.5,-,N/A,,Clear,80,2013-02-22 05:36:00
1:16 AM,14.9,11.7,87,30.34,10.0,ENE,8.1,-,N/A,,Clear,70,2013-02-22 06:16:00
1:36 AM,14.9,11.3,86,30.33,10.0,ENE,9.2,-,N/A,,Clear,70,2013-02-22 06:36:00
1:56 AM,14.5,11.1,86,30.32,10.0,East,10.4,18.4,N/A,,Clear,80,2013-02-22 06:56:00
2:16 AM,14.2,10.8,86,30.32,10.0,ENE,9.2,17.3,N/A,,Clear,70,2013-02-22 07:16:00
2:36 AM,13.8,10.4,86,30.32,10.0,ENE,6.9,-,N/A,,Clear,70,2013-02-22 07:36:00
2:55 AM,13.5,10.0,86,30.33,10.0,East,9.2,-,N/A,,Clear,80,2013-02-22 07:55:00
3:16 AM,13.1,9.5,86,30.32,10.0,East,5.8,-,N/A,,Clear,80,2013-02-22 08:16:00
3:36 AM,12.7,9.3,86,30.31,10.0,East,9.2,18.4,N/A,,Clear,80,2013-02-22 08:36:00
3:56 AM,12.2,9.1,88,30.31,4.0,East,8.1,-,N/A,Snow,Light Snow,90,2013-02-22 08:56:00
4:16 AM,12.2,8.8,86,30.30,3.0,East,5.8,18.4,N/A,Snow,Light Snow,80,2013-02-22 09:16:00
4:36 AM,12.0,8.6,86,30.29,3.0,ENE,6.9,16.1,N/A,Snow,Light Snow,70,2013-02-22 09:36:00
4:56 AM,11.7,8.6,88,30.28,4.0,East,9.2,-,N/A,Snow,Light Snow,80,2013-02-22 09:56:00
5:16 AM,11.3,8.4,88,30.27,4.0,ENE,8.1,16.1,N/A,Snow,Light Snow,70,2013-02-22 10:16:00
5:36 AM,11.3,7.9,86,30.27,5.0,East,10.4,17.3,N/A,Snow,Light Snow,80,2013-02-22 10:36:00
5:56 AM,10.9,7.7,87,30.26,5.0,ENE,10.4,17.3,N/A,Snow,Light Snow,70,2013-02-22 10:56:00
6:16 AM,10.8,7.5,87,30.25,5.0,ENE,9.2,19.6,N/A,Snow,Light Snow,70,2013-02-22 11:16:00
6:36 AM,10.4,7.3,87,30.24,5.0,ENE,6.9,17.3,N/A,Snow,Light Snow,60,2013-02-22 11:36:00
7:16 AM,10.4,7.2,87,30.24,4.0,ENE,9.2,20.7,N/A,Snow,Light Snow,70,2013-02-22 12:16:00
7:56 AM,10.4,7.3,87,30.23,3.0,ENE,5.8,-,N/A,Snow,Light Snow,70,2013-02-22 12:56:00
8:16 AM,10.4,7.3,87,30.23,2.5,East,8.1,-,N/A,Snow,Light Snow,80,2013-02-22 13:16:00
8:56 AM,10.4,7.3,87,30.20,3.0,ENE,6.9,-,N/A,Snow,Light Snow,70,2013-02-22 13:56:00
9:56 AM,11.3,7.7,85,30.15,2.5,ENE,13.8,21.9,N/A,Snow,Light Snow,70,2013-02-22 14:56:00
10:36 AM,12.0,8.2,85,30.13,3.0,ENE,12.7,23.0,N/A,Snow,Light Snow,70,2013-02-22 15:36:00
10:56 AM,12.4,8.6,85,30.13,4.0,ENE,15.0,25.3,N/A,Snow,Light Snow,70,2013-02-22 15:56:00
11:16 AM,12.9,9.0,84,30.11,5.0,East,13.8,27.6,N/A,Snow,Light Snow,80,2013-02-22 16:16:00
11:36 AM,13.5,9.5,84,30.09,7.0,ENE,9.2,21.9,N/A,,Overcast,70,2013-02-22 16:36:00
11:56 AM,14.0,10.2,85,30.08,10.0,East,13.8,24.2,N/A,,Overcast,80,2013-02-22 16:56:00
12:16 PM,14.5,10.9,86,30.08,10.0,East,10.4,21.9,N/A,,Overcast,80,2013-02-22 17:16:00
12:36 PM,14.9,11.3,86,30.07,7.0,East,10.4,21.9,N/A,,Overcast,90,2013-02-22 17:36:00
12:56 PM,15.3,12.0,87,30.07,7.0,East,12.7,24.2,N/A,,Overcast,80,2013-02-22 17:56:00
1:36 PM,16.5,13.6,88,30.04,1.2,East,12.7,19.6,N/A,Snow,Light Snow,80,2013-02-22 18:36:00
1:56 PM,17.6,14.7,88,30.02,1.8,ENE,9.2,21.9,N/A,Snow,Light Snow,70,2013-02-22 18:56:00
2:16 PM,18.3,15.4,89,30.02,4.0,East,10.4,24.2,N/A,Snow,Light Snow,80,2013-02-22 19:16:00
2:36 PM,19.4,16.7,89,30.00,7.0,ENE,11.5,24.2,N/A,,Overcast,60,2013-02-22 19:36:00
2:56 PM,20.3,17.6,89,29.99,1.2,ENE,13.8,25.3,N/A,Snow,Light Snow,70,2013-02-22 19:56:00
3:16 PM,20.5,18.0,90,29.98,1.0,ENE,10.4,25.3,N/A,Snow,Light Snow,70,2013-02-22 20:16:00
3:36 PM,21.2,18.5,89,29.97,3.0,ENE,13.8,26.5,N/A,,Overcast,70,2013-02-22 20:36:00
6:36 PM,24.3,22.8,94,29.92,4.0,East,9.2,16.1,N/A,,Overcast,80,2013-02-22 23:36:00
6:56 PM,24.6,23.2,94,29.92,4.0,ENE,8.1,-,N/A,,Overcast,70,2013-02-22 23:56:00
7:16 PM,24.8,23.7,96,29.91,4.0,East,8.1,19.6,N/A,,Overcast,80,2013-02-23 00:16:00
7:36 PM,25.2,24.3,96,29.91,3.0,East,10.4,-,N/A,Snow,Light Snow,80,2013-02-23 00:36:00
7:56 PM,25.5,24.8,97,29.90,3.0,East,10.4,18.4,N/A,Snow,Light Snow,80,2013-02-23 00:56:00
8:16 PM,25.7,25.0,97,29.89,4.0,ENE,8.1,-,N/A,Snow,Light Snow,70,2013-02-23 01:16:00
8:36 PM,26.1,25.5,98,29.89,4.0,East,6.9,-,N/A,Snow,Light Snow,90,2013-02-23 01:36:00
8:56 PM,26.4,25.7,97,29.88,4.0,East,5.8,-,N/A,,Overcast,80,2013-02-23 01:56:00
9:16 PM,26.6,26.2,99,29.87,4.0,East,6.9,-,N/A,,Overcast,80,2013-02-23 02:16:00
9:36 PM,26.6,26.4,99,29.87,3.0,East,5.8,-,N/A,Snow,Light Snow,80,2013-02-23 02:36:00
9:56 PM,27.0,26.6,99,29.86,2.5,East,5.8,-,N/A,Snow,Light Snow,90,2013-02-23 02:56:00
10:16 PM,27.0,26.6,99,29.84,2.0,East,5.8,-,N/A,Snow,Light Snow,80,2013-02-23 03:16:00
10:36 PM,26.8,26.4,99,29.83,2.0,ENE,4.6,-,N/A,Snow,Light Snow,70,2013-02-23 03:36:00
10:56 PM,27.0,26.6,99,29.83,3.0,East,4.6,-,N/A,Snow,Light Snow,90,2013-02-23 03:56:00
11:16 PM,27.1,26.6,98,29.82,2.0,East,4.6,-,N/A,Snow,Light Snow,90,2013-02-23 04:16:00
11:36 PM,27.1,27.0,99,29.81,1.8,East,5.8,-,N/A,Snow,Light Snow,90,2013-02-23 04:36:00
11:56 PM,27.1,27.0,99,29.81,1.5,East,3.5,-,N/A,Snow,Light Snow,80,2013-02-23 04:56:00